Regional Weather Roundup
Issued by NWS Upton, NY

Current Version | Previous Version | Graphics & Text | Print | Product List | Glossary Off
Versions: 1 2 3 4 5 6 7 8 9 10 11 12 13 14 15 16 17 18 19 20 21 22 23 24 25 26 27 28 29 30 31 32 33 34 35 36 37 38 39 40 41 42 43 44 45 46 47 48 49 50

000
ASUS41 KOKX 210105
RWROKX
REGIONAL WEATHER ROUNDUP
NATIONAL WEATHER SERVICE NEW YORK NY
900 PM EDT MON OCT 20 2014

NOTE: "FAIR" INDICATES FEW OR NO CLOUDS BELOW 12,000 FEET WITH NO
SIGNIFICANT WEATHER AND/OR OBSTRUCTIONS TO VISIBILITY.

NYZ071-072-176-178-NJZ106-104-210200-
NEW YORK CITY METRO AREA


CITY           SKY/WX    TMP DP  RH WIND       PRES   REMARKS
CENTRAL PARK   PTCLDY    56  40  55 VRB3      30.00F
LAGUARDIA APRT MOCLDY    57  39  51 S6        29.98S
KENNEDY INTL   MOCLDY    59  44  57 SW9       30.00S
NEWARK/LIBERTY MOCLDY    56  42  59 S5        29.98F
BRNX BOT. GARD   N/A     55  39  54 SE6       30.00S
TETERBORO      PTCLDY    53  38  56 CALM      29.97S
$$

NYZ177-179-078>081-210200-
LONG ISLAND NEW YORK

CITY           SKY/WX    TMP DP  RH WIND       PRES   REMARKS
FARMINGDALE    PTCLDY    57  43  59 SW7       29.99S
ISLIP          MOCLDY    56  43  61 SW6       29.98S
SHIRLEY        PTCLDY    58  45  62 SW8       30.01R
WESTHAMPTON    PTCLDY    60  45  57 SW9       30.01S
MONTAUK POINT    N/A     58  45  62 VRB7      30.02S
$$

NYZ052-065-067-210200-
HUDSON VALLEY

CITY           SKY/WX    TMP DP  RH WIND       PRES   REMARKS
WHITE PLAINS   PTCLDY    48  40  73 CALM      29.98S
NEWBURGH       NOT AVBL
MONTGOMERY     PTCLDY    45  38  76 CALM      29.96S
POUGHKEEPSIE   MOCLDY    51  38  60 SE5       29.97S
ALBANY         CLOUDY    50  38  63 S3        29.94S
$$

NJZ001-105-106-008-010-013-015-019>022-104-210200-
NEW JERSEY

CITY           SKY/WX    TMP DP  RH WIND       PRES   REMARKS
NEWARK/LIBERTY MOCLDY    56  42  59 S5        29.98F
TETERBORO      PTCLDY    53  38  56 CALM      29.97S
CALDWELL       PTCLDY    50  38  63 CALM      29.98S
MORRISTOWN     CLEAR     43  39  87 CALM      29.98S
SOMERVILLE     PTCLDY    46  39  76 CALM      29.96F
SUSSEX         CLOUDY    50  41  71 CALM      29.96S
ANDOVER          N/A     51  40  65 CALM      29.96F
TRENTON        PTCLDY    51  40  65 S5        29.96F
MILLVILLE      MOCLDY    56  41  57 VRB3      29.99S
ATLANTIC CITY  MOCLDY    58  44  60 SW10      30.00S
WRIGHTSTOWN    MOCLDY    51  44  77 S8        29.96F
TOMS RIVER     CLOUDY    54  45  71 CALM      29.99S
BELMAR         MOCLDY    55  43  62 SW7       29.99S
$$

PAZ047>061-062-071-210200-
EASTERN PENNSYLVANIA

CITY           SKY/WX    TMP DP  RH WIND       PRES   REMARKS
PHILADELPHIA   MOCLDY    56  45  66 S7        29.98S
ALLENTOWN      CLOUDY    54  39  57 CALM      29.96S
SCRANTON       CLOUDY    55  40  56 VRB6      29.93R
$$

CTZ002-004>006-009-010-012-RIZ004-006-007-MAZ004-011-015-210200-
SOUTHERN NEW ENGLAND
 IN CT

CITY           SKY/WX    TMP DP  RH WIND       PRES   REMARKS
BRADLEY INTL   CLOUDY    50  39  66 S5        29.98S
HARTFORD       PTCLDY    50  42  74 SE8       29.99S
DANBURY        MOCLDY    43  31  62 CALM      29.99S
WTRBRY/OXFORD  PTCLDY    48  37  66 CALM      29.98S
BRIDGEPORT     LGT RAIN  59  43  55 SW10      29.99R
MERIDEN        PTCLDY    46  40  79 CALM      30.00R
NEW HAVEN      MOCLDY    61  43  51 SW8G17    30.00R
CHESTER        FAIR      46  43  87 CALM      30.00S
GROTON         CLEAR     57  45  64 SW12      30.00S
WILLIMANTIC    CLEAR     44  39  82 CALM      30.01S

 IN RI

CITY           SKY/WX    TMP DP  RH WIND       PRES   REMARKS
PROVIDENCE     MOCLDY    46  39  76 S3        30.02S
BLOCK ISLAND   MOCLDY    57  45  62 SW16      30.01S
WESTERLY       CLEAR     57  44  62 SW6       30.02R

 IN MA

CITY           SKY/WX    TMP DP  RH WIND       PRES   REMARKS
BOSTON         MOCLDY    51  37  58 SW8       30.01R
WORCESTER      MOCLDY    45  36  70 SW8       29.98S
WESTFIELD      PTCLDY    45  39  79 CALM      29.99R
PROVINCETOWN   PTCLDY    54  39  58 W14       30.03R
NANTUCKET      MOCLDY    55  43  63 SW10      30.05R
$$

ANZ330-335-338-340-345-350-353-355-210200-
COASTAL MARINE OBSERVATIONS


STATION/POSITION TIME  SKY/WX   TEMP    WIND        PRES    VSBY  WAVE
                                AIR SEA DIR/SP/G                  HT/PER
                 (UTC)          (F)     (DEG/KT/KT) (MB)    (MI)  (FT/S)
NY HARB ENTRANCE NOT AVBL
4S FIRE IS       0100               63                N/A           5/ 5
20S FIRE ISLAND  0100            62 63  210/ 19/ 23 1015.6          5/ 5
23SW MTP         0100                                 N/A           4/ 5
HUDSON CANYON    0100            62 66  220/ 17/ 21 1016.5          4/ 4
EXECUTION ROCKS  0100            58 64  180/  6/  8   N/A
WESTERN LI SOUND 0100            59     180/  8/ 10   N/A           1
CENTRAL LI SOUND 0100            59 64  220/ 12/ 16   N/A           2/ 4
EASTERN LI SOUND 0000            59 64  230/ 14/ 17   N/A
ROBBINS REEF     0000            58     180/  7/  8 1014.1
$$


>>>>>>>>>>>>>>>>>>>>>>>>>>>> KEY <<<<<<<<<<<<<<<<<<<<<<<<<<<
>                                                          <
>     SKY/WX - SKY CONDITION/PRESENT WEATHER               <
>     TMP    - TEMPERATURE IN FAHRENHEIT                   <
>     DP     - DEWPOINT IN FAHRENHEIT                      <
>     RH     - RELATIVE HUMIDITY IN PERCENT                <
>     WIND   - DIRECTION AND SPEED IN MPH                  <
>     PRES   - MEAN SEA LEVEL PRESSURE IN INCHES OF HG     <
>     WCI    - WIND CHILL INDEX                            <
>     VSB    - VISIBILITY IN MILES                         <
>     HX     - HEAT INDEX                                  <
>     TC     - TEMPERATURE IN CELSIUS                      <
>     VRB    - VARIABLE WIND DIRECTION                     <
>                                                          <
>>>>>>>>>>>>>>>>>>>>>>>>>>>> KEY <<<<<<<<<<<<<<<<<<<<<<<<<<<





USA.gov is the U.S. government's official web portal to all federal, state and local government web resources and services.